Location: Unspecified
(29.9680°N, 0.0000°E)
Time: 19:36:14
(UTC+00:00)

A-11 Canister half - Pass Details

Date: 22 June 2019
Orbit: 1526 x 1683 km, 47.3° (Epoch: 19 August)

Event Time Altitude Azimuth Distance (km) Brightness Sun altitude
Rises 08:59:51 0° 308° (NW) 4,683 11.2 49.1°
Reaches altitude 10° 09:03:19 10° 317° (NW) 3,695 10.9 49.8°
Maximum altitude 09:11:37 35° 21° (NNE) 2,283 10.6 51.6°
Drops below altitude 10° 09:19:58 10° 84° (E) 3,725 11.8 53.4°
Sets 09:23:28 0° 93° (E) 4,725 12.1 54.2°
